Wetbulb
41.55 36.84 35.54 36.41 38.06 38.20 36.22 34.57 33.59 34.82 39.09 35.99 36.51 34.58 36.38 36.73 36.01 34.61 34.96 35.77 35.85 36.94 37.57 38.55 38.01 37.43 36.41 36.92 37.80 37.33 36.43 35.66 35.17 34.23 33.33 33.28 32.35 32.16 32.36 32.70 33.67 33.78 33.67 33.47
37.16 35.26 40.93 41.69 40.51 38.85 37.48 34.05 33.92 36.44 38.69 36.47 34.61 34.04 34.97 35.83 38.45 37.34 36.70 35.90 36.05 35.81 36.57 37.26 35.90 35.45 35.41 35.78 36.52 35.99 35.25 34.39 33.86 33.01 32.48 33.19 32.16 32.44 31.91 32.57 32.36 33.02 32.80 32.39
35.27 38.64 43.06 40.59 38.60 37.40 36.42 34.61 34.02 34.51 36.32 35.62 33.00 30.17 33.60 35.33 36.97 36.69 37.59 37.35 37.29 36.41 35.88 36.16 35.66 33.80 32.81 34.14 34.80 34.83 34.38 33.93 33.73 32.97 31.97 31.86 32.13 31.87 30.51 30.25 30.57 31.41 32.14 31.40
37.43 42.50 40.95 39.37 37.78 38.96 33.83 39.19 37.53 35.54 32.19 28.03 33.13 26.53 31.72 33.22 34.01 35.28 35.89 35.79 36.02 36.47 36.88 35.90 33.81 32.08 31.31 32.18 34.46 35.15 35.32 34.43 33.44 32.45 30.49 29.78 28.41 26.99 28.54 28.43 29.13 30.28 31.19 30.13
37.56 38.74 38.19 37.08 38.60 41.31 37.61 41.81 38.99 36.28 31.37 27.99 28.60 27.15 27.07 33.56 32.39 33.94 34.28 35.49 35.52 36.17 35.79 34.83 33.68 32.58 32.15 31.75 31.76 34.13 33.88 32.78 31.51 30.59 29.56 27.81 26.32 27.02 27.54 27.40 27.12 28.16 29.08 28.73
39.82 42.72 40.03 40.19 40.96 40.17 39.98 35.85 34.74 32.45 28.95 22.53 29.02 29.05 26.91 29.72 33.99 34.01 34.79 35.40 35.55 35.31 35.53 35.21 34.16 32.68 30.62 30.98 30.83 31.18 31.41 30.17 30.08 29.31 28.13 26.30 25.40 25.35 24.65 24.83 24.73 25.31 26.27 26.50
40.65 41.93 44.15 42.86 39.13 40.41 36.55 32.94 25.17 21.72 20.99 23.28 30.77 27.10 31.16 34.49 37.47 38.30 35.03 34.59 35.37 36.31 34.76 33.19 31.65 31.70 30.93 29.72 29.47 28.84 29.22 28.97 28.64 27.61 26.26 25.90 26.03 25.68 24.75 24.29 24.51 24.37 24.34 24.40
30.76 30.16 39.81 43.58 42.15 39.56 36.91 36.04 27.61 21.83 20.59 23.11 30.09 24.29 28.03 36.63 37.86 37.73 36.99 35.76 36.10 34.80 34.45 33.73 33.03 32.60 31.53 29.83 28.11 27.78 28.75 28.11 27.99 26.82 25.42 25.25 25.52 25.01 25.23 25.04 24.80 24.83 24.87 24.33
30.09 29.97 37.62 39.86 41.58 41.99 35.94 31.45 38.68 30.22 27.95 23.18 25.12 29.34 34.50 35.95 35.28 35.11 34.52 34.80 32.63 33.52 34.66 33.90 32.51 31.26 30.44 29.34 28.54 28.22 28.01 27.40 26.98 25.86 25.17 24.50 24.91 24.62 24.19 24.33 24.31 24.31 25.06 25.61
35.95 28.75 37.00 38.69 37.29 36.69 37.57 37.92 28.67 28.06 22.99 21.39 22.82 25.23 25.86 31.40 33.94 34.54 32.46 33.05 34.25 35.27 33.57 33.69 30.90 29.43 29.23 25.93 27.04 27.40 27.75 26.72 26.43 25.13 25.42 25.12 24.84 25.20 25.13 24.76 23.65 23.65 23.96 24.83
36.59 32.55 32.23 34.52 31.87 31.21 31.85 30.64 31.11 31.06 27.66 23.72 18.51 20.97 31.30 33.24 34.54 34.18 33.10 33.91 35.25 35.04 33.95 31.74 28.91 28.09 27.00 25.02 23.41 25.92 27.17 26.52 26.14 26.65 25.98 25.52 25.60 25.30 25.20 24.68 23.72 23.63 24.01 24.34
38.17 34.23 27.65 31.86 36.75 36.04 33.27 32.28 31.87 25.79 24.32 24.64 21.15 20.54 33.81 35.40 36.84 36.72 35.37 35.05 35.03 36.15 32.92 30.43 28.42 26.69 25.45 25.50 24.82 23.81 25.26 23.86 25.22 26.67 26.90 26.83 26.21 24.81 23.86 23.55 23.40 23.61 22.66 23.65
38.07 31.59 25.04 26.76 30.69 34.53 32.05 33.34 34.52 32.18 29.09 24.83 21.19 22.59 35.79 38.55 37.59 37.96 36.28 35.05 34.60 33.59 30.98 28.76 27.64 26.97 24.74 25.59 23.88 23.68 23.88 25.36 26.19 23.65 24.44 27.00 25.64 23.56 19.64 20.24 22.43 22.12 21.61 22.33
41.49 34.15 31.09 24.14 26.60 31.72 30.35 32.50 34.47 32.83 26.14 23.59 25.11 27.04 30.83 36.37 37.16 37.44 37.80 36.86 35.56 32.52 29.81 27.90 26.95 26.67 25.83 26.35 24.08 25.56 26.68 27.04 27.13 26.05 22.24 21.52 22.21 16.87 17.43 19.37 16.18 17.11 19.55 19.77
37.52 30.52 32.71 33.52 34.41 34.60 33.34 31.05 32.39 31.62 31.60 28.64 29.70 29.82 33.35 36.05 37.38 37.86 37.43 35.04 34.68 33.89 29.81 28.23 27.49 26.53 26.25 26.68 26.21 27.26 28.05 28.25 28.39 26.46 25.42 23.23 25.54 22.53 19.09 18.09 16.49 17.14 17.68 17.77
36.22 30.62 32.39 30.77 34.21 34.54 32.20 32.62 29.88 30.50 30.91 30.48 29.62 27.77 34.70 35.94 37.42 35.04 35.13 35.49 35.03 34.72 34.19 32.30 29.20 28.28 28.06 28.28 26.51 28.43 29.15 29.45 29.75 26.88 26.98 26.52 27.44 26.59 23.82 23.57 24.35 23.13 18.96 17.19
33.98 30.15 28.68 25.74 31.30 30.83 27.12 30.48 32.01 29.99 32.24 31.99 26.09 29.57 32.29 33.54 35.06 35.78 35.63 36.49 35.53 35.00 34.22 33.16 30.81 29.51 28.67 29.24 29.20 28.75 29.82 30.81 29.41 28.06 27.63 27.70 27.91 26.29 25.44 25.16 23.54 22.44 21.39 21.29
33.20 31.37 30.44 26.72 28.98 19.50 29.03 34.47 34.15 32.35 32.53 32.81 30.32 30.51 33.33 34.28 35.78 37.10 37.42 36.94 35.93 36.07 35.05 33.65 32.01 30.42 29.66 29.64 28.92 28.12 28.92 28.95 27.94 27.07 26.77 26.94 26.94 26.50 25.96 24.85 23.20 22.40 21.61 19.98
36.82 33.08 28.33 25.53 25.21 27.63 29.51 31.84 31.02 30.73 30.34 33.03 31.62 31.93 33.58 35.19 35.31 33.51 38.21 38.02 37.29 36.65 35.09 33.13 31.94 30.10 29.22 28.30 27.64 27.40 26.71 26.58 26.66 26.15 26.27 26.46 26.29 25.60 25.27 24.91 23.59 21.98 20.42 19.70
35.27 35.36 30.34 26.43 22.17 17.68 27.30 33.96 36.75 34.85 25.01 34.10 34.27 32.73 33.55 33.74 28.29 30.27 36.16 36.95 36.22 35.70 32.91 31.14 30.10 29.07 28.21 27.07 27.45 26.57 25.05 25.21 24.90 25.96 26.03 25.94 26.37 25.66 24.36 24.41 24.54 23.79 21.63 20.98
28.85 30.73 26.25 26.35 24.39 26.40 30.81 33.66 36.42 23.74 25.44 33.57 35.50 34.60 34.53 32.89 34.02 34.92 36.16 35.03 34.13 32.11 31.31 30.99 29.16 27.95 27.52 27.24 26.78 25.17 24.76 24.05 26.08 26.84 26.74 26.68 25.90 24.57 23.68 23.72 24.78 23.63 23.00 20.20
26.64 26.70 25.62 27.53 24.58 21.57 33.86 32.80 27.95 30.98 32.04 35.16 35.07 35.38 35.98 34.16 34.18 34.35 33.58 31.36 31.10 29.85 30.45 28.84 27.36 26.07 26.76 26.92 26.59 23.81 23.56 24.69 26.18 26.04 26.07 25.75 24.52 25.31 23.95 22.43 22.74 22.75 18.35 14.16
25.70 29.64 27.43 28.12 27.67 33.77 34.33 32.92 34.03 34.44 33.90 34.19 34.18 35.53 36.61 35.08 34.48 33.76 31.94 29.66 29.71 29.31 28.26 27.97 26.46 25.42 26.12 26.69 26.99 24.35 24.27 25.30 25.93 25.54 25.04 24.60 24.11 23.42 22.66 20.82 19.58 18.60 17.60 15.08
30.64 34.65 29.87 29.11 31.72 32.29 34.12 35.64 35.77 36.63 36.73 37.09 37.33 37.14 37.19 36.26 35.70 34.10 31.13 29.32 28.71 27.75 27.18 27.05 26.17 25.30 24.68 25.71 26.70 26.28 26.05 26.38 25.76 24.67 23.40 24.29 21.22 19.92 20.27 20.62 19.38 16.95 15.00 14.18
30.31 33.11 30.01 28.63 31.59 33.38 34.68 35.25 36.45 36.38 37.34 37.24 37.75 38.07 38.24 36.84 35.14 34.35 31.60 30.13 29.34 28.74 28.55 27.98 26.97 26.36 25.72 26.36 25.49 26.03 26.81 26.53 25.24 23.79 22.88 22.27 21.19 19.19 18.73 18.49 16.87 17.45 15.35 16.54
30.99 30.54 27.39 26.31 32.45 32.17 32.81 36.83 36.85 36.90 36.92 36.94 36.83 36.67 38.28 38.07 36.64 34.17 32.28 30.95 30.35 29.48 28.72 27.98 27.30 27.41 27.65 26.75 25.81 26.01 26.77 26.48 24.64 21.98 21.64 20.79 20.21 19.06 18.66 17.74 16.25 21.37 18.81 21.73
MSLP
1011.19 1011.75 1011.85 1012.10 1012.42 1012.61 1013.01 1013.22 1012.97 1011.99 1011.50 1011.61 1011.58 1012.20 1012.81 1014.10 1015.37 1016.53 1017.40 1018.28 1019.21 1020.06 1020.73 1021.14 1021.58 1022.13 1022.60 1022.98 1023.25 1023.40 1023.57 1023.79 1023.65 1023.74 1023.78 1023.82 1024.12 1024.01 1023.88 1023.73 1023.53 1023.20 1022.95 1022.54
1011.96 1011.51 1011.00 1011.65 1012.02 1012.47 1012.69 1013.02 1012.92 1012.26 1011.54 1011.74 1011.72 1012.01 1012.51 1013.63 1013.87 1014.82 1016.39 1017.89 1018.84 1019.97 1020.96 1021.75 1022.26 1022.48 1022.63 1023.14 1023.50 1023.59 1023.79 1023.95 1023.92 1023.96 1024.15 1024.22 1024.37 1024.25 1024.05 1023.86 1023.67 1023.53 1023.28 1022.92
1011.33 1010.89 1010.67 1011.39 1011.87 1012.28 1012.40 1012.69 1012.63 1012.66 1012.13 1011.94 1012.11 1011.88 1012.20 1012.87 1013.89 1015.28 1016.49 1017.70 1018.84 1019.48 1020.57 1021.55 1022.21 1022.58 1022.76 1023.31 1023.70 1023.66 1023.82 1024.17 1024.38 1024.25 1024.06 1024.02 1024.11 1024.32 1024.31 1024.30 1024.23 1023.80 1023.52 1023.30
1010.96 1010.53 1010.58 1011.04 1011.20 1011.57 1011.87 1011.84 1012.10 1012.49 1012.92 1012.94 1012.70 1011.89 1012.10 1012.79 1013.85 1014.81 1015.85 1016.83 1018.01 1019.21 1020.46 1021.38 1022.37 1022.90 1023.21 1023.52 1023.82 1023.94 1024.05 1024.47 1024.74 1024.46 1024.46 1024.38 1024.29 1024.82 1025.12 1024.83 1024.50 1023.99 1023.84 1023.67
1009.74 1009.84 1010.09 1010.29 1010.13 1010.64 1010.89 1011.04 1011.58 1012.25 1012.91 1013.28 1013.15 1013.69 1011.94 1012.92 1014.00 1014.53 1015.39 1016.56 1017.73 1018.88 1019.94 1021.11 1022.06 1022.64 1023.15 1023.62 1024.20 1024.15 1024.20 1024.65 1024.74 1024.63 1024.64 1024.73 1024.99 1025.29 1025.26 1024.90 1024.82 1024.60 1024.19 1023.96
1009.92 1009.61 1009.71 1009.54 1009.55 1009.86 1010.29 1010.94 1011.82 1012.81 1013.47 1013.69 1013.38 1013.62 1011.97 1012.44 1012.97 1014.24 1015.28 1016.36 1017.42 1018.51 1019.69 1020.84 1021.92 1022.67 1023.34 1023.90 1024.64 1024.65 1024.62 1024.78 1024.99 1024.83 1024.76 1025.32 1025.54 1025.82 1025.88 1025.46 1025.01 1024.61 1024.37 1024.08
1009.96 1009.40 1009.47 1009.18 1009.46 1009.76 1010.26 1011.32 1012.55 1013.31 1013.93 1013.10 1012.67 1013.45 1012.08 1012.38 1012.88 1013.64 1014.83 1016.01 1017.04 1017.93 1019.10 1020.26 1021.54 1022.41 1023.31 1023.83 1024.54 1024.76 1024.79 1024.99 1025.05 1024.81 1025.13 1025.92 1026.13 1025.91 1025.91 1025.80 1025.52 1025.01 1024.51 1024.36
1010.44 1009.51 1009.00 1008.43 1008.40 1008.80 1009.35 1010.66 1011.71 1012.25 1013.20 1013.23 1013.21 1012.89 1012.08 1012.43 1012.84 1013.29 1014.18 1015.77 1017.00 1018.08 1019.01 1019.99 1020.75 1021.71 1022.08 1023.40 1024.40 1024.71 1024.84 1024.82 1024.87 1025.14 1025.94 1026.31 1026.24 1026.30 1026.10 1025.77 1025.67 1025.58 1025.31 1025.05
1010.35 1009.62 1008.75 1008.66 1008.24 1008.67 1009.13 1009.74 1010.01 1011.50 1012.95 1013.68 1013.10 1012.58 1012.49 1012.93 1013.57 1014.23 1014.82 1015.74 1016.95 1017.91 1018.73 1019.47 1020.55 1021.29 1022.22 1023.20 1023.96 1024.41 1024.39 1024.78 1025.17 1025.74 1026.28 1026.53 1026.33 1026.11 1026.03 1026.05 1026.02 1025.88 1025.71 1025.26
1009.67 1009.55 1008.90 1008.67 1008.61 1008.44 1008.75 1009.22 1010.45 1011.56 1012.58 1013.51 1012.92 1012.82 1012.60 1013.04 1013.60 1014.54 1015.39 1015.61 1016.63 1017.35 1018.50 1019.53 1020.36 1021.41 1022.51 1023.36 1023.73 1024.30 1024.50 1024.80 1025.28 1025.88 1026.19 1026.27 1026.26 1026.14 1026.31 1026.31 1026.27 1026.22 1025.98 1025.72
1010.43 1010.33 1009.13 1008.99 1008.84 1008.68 1008.88 1009.36 1010.07 1010.58 1011.62 1012.40 1013.19 1012.45 1011.37 1011.90 1012.68 1013.58 1014.63 1015.26 1015.86 1016.75 1017.85 1019.15 1020.69 1021.52 1022.54 1023.24 1023.81 1024.38 1024.61 1024.88 1025.40 1025.82 1025.97 1026.24 1026.58 1026.62 1026.58 1026.56 1026.53 1026.48 1026.22 1025.97
1011.59 1011.02 1010.03 1009.16 1008.81 1008.81 1008.58 1008.62 1009.49 1010.37 1011.52 1012.24 1012.96 1012.04 1011.08 1011.22 1011.78 1012.71 1013.85 1014.65 1015.28 1016.54 1017.98 1019.30 1020.51 1021.53 1022.44 1023.17 1023.83 1024.32 1024.62 1024.95 1025.30 1025.56 1025.82 1026.34 1026.74 1026.91 1026.96 1026.98 1026.89 1026.76 1026.51 1026.31
1012.49 1012.08 1011.58 1009.60 1009.02 1009.05 1008.83 1008.74 1009.17 1009.94 1010.57 1011.37 1012.57 1011.69 1010.90 1010.95 1011.58 1012.24 1013.43 1014.40 1015.37 1016.77 1018.00 1019.38 1020.54 1021.31 1022.27 1022.74 1023.49 1024.02 1024.35 1024.71 1025.01 1025.21 1025.71 1026.29 1026.87 1027.21 1027.41 1027.41 1027.27 1027.13 1026.94 1026.75
1012.74 1012.49 1012.54 1011.98 1011.01 1010.87 1009.76 1009.02 1009.15 1009.53 1010.45 1010.94 1010.87 1011.25 1010.87 1011.14 1011.60 1012.05 1012.96 1014.10 1015.21 1016.47 1017.63 1018.78 1020.00 1021.00 1021.64 1022.16 1022.89 1023.48 1024.03 1024.31 1024.57 1025.15 1025.82 1026.42 1026.95 1027.33 1027.64 1027.70 1027.73 1027.74 1027.42 1027.17
1012.79 1012.44 1012.40 1011.87 1011.41 1011.16 1011.02 1010.21 1009.42 1009.34 1009.73 1009.99 1009.88 1010.99 1010.28 1010.45 1010.86 1011.48 1012.54 1013.81 1015.10 1016.47 1017.18 1018.12 1019.29 1020.37 1020.96 1021.59 1022.40 1023.15 1023.57 1023.91 1024.29 1024.95 1025.62 1026.29 1026.81 1027.26 1027.67 1027.79 1027.88 1027.93 1027.73 1027.53
1012.23 1012.09 1011.95 1011.55 1011.28 1010.82 1010.32 1010.45 1010.29 1009.21 1008.82 1009.25 1009.56 1009.68 1009.73 1009.94 1010.58 1011.66 1012.29 1013.59 1014.67 1015.70 1016.17 1017.40 1018.58 1019.60 1020.24 1020.94 1021.73 1022.37 1022.82 1023.36 1023.95 1024.55 1025.12 1025.80 1026.48 1027.09 1027.51 1027.69 1027.80 1027.92 1027.86 1027.82
1012.91 1012.99 1012.38 1011.05 1010.54 1010.39 1010.05 1008.57 1008.75 1008.89 1008.37 1008.27 1008.94 1008.82 1009.47 1010.22 1010.66 1010.98 1011.94 1012.98 1013.62 1014.48 1015.49 1016.54 1017.69 1018.58 1019.46 1020.25 1020.88 1021.48 1022.02 1022.78 1023.51 1024.17 1024.77 1025.37 1026.06 1026.66 1027.12 1027.44 1027.70 1027.88 1027.95 1027.91
1012.12 1012.46 1012.40 1011.43 1011.18 1009.82 1008.06 1007.22 1007.32 1007.61 1007.73 1007.80 1008.02 1008.73 1009.28 1009.55 1009.96 1010.53 1011.30 1012.08 1012.99 1013.92 1014.79 1015.87 1017.00 1018.01 1018.86 1019.59 1020.29 1020.91 1021.73 1022.48 1023.20 1024.00 1024.58 1025.17 1025.73 1026.23 1026.76 1027.19 1027.59 1027.88 1027.98 1028.03
1011.30 1011.94 1011.63 1010.85 1010.11 1009.35 1007.98 1006.83 1006.93 1007.17 1006.95 1007.02 1007.89 1008.42 1009.06 1009.72 1010.24 1010.94 1011.23 1011.69 1012.49 1013.21 1014.19 1015.43 1016.44 1017.49 1018.44 1019.16 1019.87 1020.80 1021.74 1022.40 1023.18 1023.89 1024.44 1024.97 1025.51 1025.99 1026.45 1026.93 1027.46 1027.82 1028.05 1028.18
1010.87 1011.21 1011.32 1010.66 1009.75 1008.78 1007.02 1005.73 1005.90 1006.46 1006.79 1006.82 1007.37 1008.01 1008.96 1009.79 1010.88 1010.78 1010.96 1011.93 1012.75 1013.37 1014.25 1015.42 1016.46 1017.42 1018.26 1019.04 1019.76 1020.76 1021.70 1022.40 1023.18 1023.76 1024.33 1024.82 1025.31 1025.82 1026.29 1026.77 1027.27 1027.71 1028.05 1028.32
1010.57 1010.34 1009.99 1009.66 1009.06 1007.93 1006.50 1005.91 1005.95 1006.78 1007.44 1007.09 1007.34 1007.84 1008.86 1009.44 1009.88 1010.10 1010.84 1012.00 1012.83 1013.86 1014.75 1015.66 1016.50 1017.14 1017.94 1018.88 1019.76 1020.79 1021.63 1022.34 1022.92 1023.64 1024.29 1024.85 1025.28 1025.76 1026.23 1026.74 1027.20 1027.69 1028.01 1028.50
1009.74 1009.83 1009.54 1009.39 1008.66 1007.73 1006.16 1006.41 1006.27 1006.52 1006.80 1006.97 1007.41 1007.85 1008.57 1009.21 1009.82 1010.75 1011.69 1012.57 1013.40 1014.15 1015.06 1015.84 1016.59 1017.34 1018.17 1018.92 1019.66 1020.71 1021.50 1022.14 1022.82 1023.54 1024.28 1024.83 1025.30 1025.70 1026.34 1026.81 1027.39 1027.79 1028.30 1028.90
1009.43 1009.06 1009.27 1009.17 1008.00 1006.93 1006.23 1005.81 1005.71 1006.04 1006.64 1006.90 1007.06 1007.49 1008.53 1009.13 1010.08 1011.06 1011.95 1012.78 1013.51 1014.21 1014.98 1015.68 1016.34 1017.29 1018.21 1018.83 1019.42 1020.40 1021.19 1021.91 1022.69 1023.44 1024.20 1024.75 1025.23 1025.77 1026.44 1026.97 1027.58 1028.06 1028.51 1029.04
1008.84 1008.64 1009.08 1008.86 1007.26 1006.45 1005.86 1005.77 1005.85 1006.12 1006.18 1006.34 1006.66 1007.30 1008.03 1008.90 1009.62 1010.70 1011.77 1012.68 1013.48 1014.33 1014.82 1015.41 1016.15 1017.13 1017.98 1018.65 1019.29 1019.91 1020.81 1021.58 1022.38 1023.24 1023.99 1024.61 1025.24 1025.90 1026.53 1027.03 1027.60 1028.12 1028.65 1029.07
1008.89 1008.58 1008.29 1007.98 1007.24 1006.60 1006.08 1005.87 1005.80 1006.06 1006.19 1006.32 1006.54 1006.91 1007.42 1008.20 1009.44 1010.15 1011.41 1012.33 1013.21 1013.87 1014.55 1015.10 1015.64 1016.42 1017.33 1018.22 1018.99 1019.66 1020.46 1021.26 1022.15 1023.00 1023.77 1024.44 1025.11 1025.84 1026.52 1027.10 1027.59 1027.99 1028.52 1028.66
1008.66 1008.19 1008.13 1007.56 1007.05 1006.96 1006.49 1005.95 1005.84 1006.00 1006.02 1006.44 1006.86 1007.36 1007.68 1008.30 1008.88 1009.89 1010.87 1011.70 1012.59 1013.35 1014.05 1014.74 1015.45 1016.09 1016.89 1017.82 1018.64 1019.38 1020.10 1020.84 1021.78 1022.78 1023.58 1024.27 1025.03 1025.79 1026.47 1027.11 1027.68 1027.83 1028.35 1028.41
Wind_Speed
1 3 10 8 8 4 1 3 5 5 6 4 7 6 7 10 7 10 12 13 12 11 7 7 7 7 7 6 6 5 6 4 3 3 2 2 2 2 2 3 5 7 7 9
2 10 8 7 5 5 4 2 8 8 8 5 8 9 6 12 17 17 17 15 14 8 9 8 7 5 5 7 6 6 6 5 4 2 1 0 1 1 2 3 5 6 8 9
9 6 5 8 5 7 6 6 4 8 5 3 4 6 6 3 5 8 8 8 11 15 15 11 9 7 7 7 6 6 6 6 4 4 2 2 2 2 3 3 4 4 8 8
8 12 13 8 7 7 5 8 7 6 1 6 1 9 4 4 6 10 13 15 15 14 11 9 7 5 6 5 4 5 6 5 3 3 3 4 3 3 3 3 3 4 7 8
8 5 7 9 10 9 5 8 10 7 5 2 3 3 4 2 4 10 10 11 12 12 14 12 10 8 6 6 5 5 6 5 4 5 5 5 5 3 3 3 5 5 6 8
6 1 4 8 4 7 5 4 5 4 4 5 7 7 4 5 5 1 6 11 13 14 13 10 7 8 6 6 4 4 6 5 5 6 7 7 7 4 4 4 4 4 4 6
3 16 9 5 4 0 4 5 2 3 0 9 7 5 10 3 3 6 12 13 15 16 15 14 13 10 9 7 5 5 5 5 5 7 8 6 4 4 4 4 4 6 5 5
3 7 7 7 19 11 11 12 8 6 5 4 2 7 7 2 5 2 9 11 13 11 11 12 12 12 11 8 6 6 6 6 7 8 7 4 4 3 2 4 4 4 4 4
4 7 4 4 5 10 4 9 15 6 2 1 5 4 3 2 4 5 8 10 8 10 13 12 8 8 9 8 7 7 6 7 7 6 5 4 3 5 6 6 4 4 5 6
4 7 8 9 2 2 11 7 3 1 6 10 4 4 6 5 8 7 8 12 13 11 9 10 9 9 6 6 5 6 6 7 6 6 5 4 4 5 4 4 6 6 5 6
2 4 6 1 5 8 3 4 1 4 5 8 2 8 7 9 10 13 11 10 13 13 10 9 8 8 8 6 4 5 6 7 6 6 5 5 4 4 4 5 5 5 5 6
9 3 8 13 7 3 3 7 8 6 5 2 4 9 3 5 9 10 12 14 9 6 7 9 10 9 9 8 6 6 5 6 5 6 6 6 5 5 5 5 5 5 6 7
9 4 5 7 1 2 6 4 3 3 3 7 6 8 1 3 7 8 7 7 6 6 9 9 10 10 10 8 7 7 6 7 6 6 6 6 5 5 4 3 4 5 5 6
12 7 9 7 1 6 6 5 5 5 3 5 7 5 4 5 8 7 8 6 6 6 9 8 9 10 9 8 8 8 7 6 6 6 5 6 5 4 3 2 3 4 4 6
10 6 5 11 16 16 14 13 7 7 6 7 12 12 13 11 10 10 9 8 7 7 8 9 10 9 9 8 8 7 7 7 7 7 7 6 7 5 3 3 3 2 5 4
2 12 9 17 16 16 18 21 13 6 2 2 3 8 6 2 6 5 8 8 8 10 10 11 10 10 10 10 10 10 9 8 8 6 6 7 9 8 6 4 3 4 4 5
2 3 4 17 13 7 9 24 24 6 5 8 10 8 6 5 8 10 9 10 9 8 10 11 12 12 11 11 10 10 9 9 8 7 7 7 8 8 7 5 4 4 4 4
10 8 4 7 5 7 6 4 18 19 8 9 4 5 10 9 4 4 5 9 8 8 8 9 9 10 11 9 8 8 9 9 9 8 8 7 7 8 7 6 5 4 4 4
14 7 4 4 5 3 6 6 7 9 11 8 9 8 6 6 5 2 6 6 6 6 6 8 9 9 9 10 10 11 9 9 9 8 8 8 7 7 7 7 6 5 4 4
12 13 9 3 4 9 6 5 7 5 8 6 7 7 9 6 5 6 7 5 4 5 6 9 10 8 10 10 12 12 10 9 8 8 7 6 6 6 6 6 7 5 5 5
4 5 13 6 4 6 6 2 7 7 6 3 7 7 12 8 5 5 8 5 5 5 7 10 10 11 11 11 12 11 10 10 8 8 7 7 6 6 5 5 4 5 4 6
7 5 4 4 4 6 5 1 7 6 2 4 6 7 11 6 7 6 6 7 8 9 10 9 10 9 10 11 12 10 10 8 9 9 9 8 7 6 5 7 5 6 6 5
3 5 1 4 4 4 5 5 3 6 5 5 5 5 7 8 6 8 7 8 8 10 10 9 11 11 9 10 11 11 8 11 10 10 9 8 8 7 7 6 6 5 5 3
2 2 4 1 5 6 6 1 3 6 6 6 6 8 9 8 8 8 7 7 7 9 11 10 12 11 10 9 9 8 11 11 12 10 8 8 7 7 5 5 5 5 4 3
4 2 3 4 6 5 5 6 5 5 3 4 4 8 12 8 7 7 8 9 9 10 9 11 12 12 12 11 9 10 12 12 11 9 8 8 7 7 6 5 5 5 2 5
3 4 3 5 4 2 5 4 2 5 5 4 4 1 3 7 9 9 9 9 11 11 10 10 9 11 12 12 10 11 12 13 12 9 7 7 7 6 6 5 3 9 9 10
Wind_Direction
255 125 221 182 191 158 20 275 272 265 264 300 251 240 230 187 160 162 176 169 164 164 156 141 131 129 112 102 111 111 95 48 52 41 21 30 64 3 18 11 5 10 1 10
51 227 212 190 177 213 238 243 267 287 256 173 270 261 267 179 202 188 176 177 166 145 145 143 141 142 125 137 134 112 95 71 48 54 357 147 168 107 53 8 359 5 7 11
193 220 174 176 203 226 235 213 225 240 298 258 308 275 229 173 130 147 186 155 165 163 157 158 154 148 129 145 154 126 104 82 54 48 50 55 50 23 12 355 355 346 14 12
230 224 234 221 214 178 230 209 214 235 168 257 80 286 227 188 171 180 175 176 171 164 157 150 145 142 142 133 119 115 112 110 83 55 73 73 86 46 347 339 333 346 14 8
233 183 196 217 231 179 237 208 222 211 201 118 206 244 281 126 212 215 197 178 166 157 150 156 163 156 145 131 137 133 116 110 78 70 67 66 59 40 352 7 354 354 1 11
217 339 177 196 205 159 168 91 54 57 105 249 190 187 241 191 205 102 157 166 160 149 153 154 134 132 139 125 142 119 112 92 77 71 62 59 57 28 6 354 5 3 1 8
253 242 231 177 222 325 108 88 303 310 117 229 198 193 247 229 243 231 183 170 166 160 158 157 161 162 158 152 152 138 123 109 93 75 63 55 59 54 41 10 0 6 9 14
238 303 171 206 216 203 200 189 200 210 192 239 144 229 245 244 309 107 146 158 162 159 156 169 172 176 154 153 161 144 148 118 84 73 66 58 53 48 43 28 15 11 8 359
208 262 285 196 200 172 194 205 226 246 82 55 219 284 331 124 75 105 140 143 140 152 187 181 158 144 145 153 162 163 128 104 98 105 101 83 72 57 42 26 18 11 6 11
235 281 220 259 150 220 200 169 115 339 202 235 248 248 233 228 203 172 175 167 179 184 165 173 156 145 138 151 151 140 132 131 125 127 125 96 77 67 54 41 31 18 11 9
313 173 248 316 205 198 167 198 175 144 168 223 229 262 211 210 191 191 196 198 191 193 182 157 149 145 143 147 148 152 144 134 140 144 129 104 79 64 57 51 34 23 18 11
299 250 274 240 235 225 239 205 172 177 194 113 143 265 274 251 198 177 195 204 198 171 147 146 154 151 156 163 164 165 152 145 153 147 127 116 93 67 60 52 36 24 28 23
347 353 305 310 107 298 219 212 179 117 94 174 141 259 276 181 174 190 188 200 193 161 152 150 157 165 174 170 169 168 166 163 158 133 131 126 113 87 60 45 45 34 28 29
225 200 206 251 331 333 286 219 196 149 142 172 214 303 278 232 200 172 192 190 190 172 157 160 168 176 173 169 171 173 175 172 153 142 139 138 135 141 110 75 53 39 27 33
173 239 230 239 241 260 283 296 222 196 191 191 262 244 264 225 201 190 187 167 156 186 179 178 177 178 172 168 169 178 178 171 160 158 156 164 156 150 135 92 72 47 44 32
278 271 255 262 246 244 245 246 276 247 172 211 185 248 218 100 110 166 198 161 178 200 192 191 183 176 177 178 180 179 174 170 163 161 168 155 163 164 161 145 115 79 50 27
227 285 248 261 261 231 241 223 230 248 210 177 204 219 167 185 195 199 187 184 185 195 185 181 186 183 178 181 174 177 168 156 160 156 151 151 160 162 164 151 130 93 64 39
226 215 205 277 203 219 256 220 203 209 206 212 212 168 185 205 193 130 154 176 197 187 171 171 170 172 174 164 159 138 144 152 150 150 149 148 152 158 159 153 134 113 75 49
216 218 237 229 217 328 248 208 171 174 246 191 208 203 173 130 88 9 185 178 201 185 160 172 168 160 155 154 146 140 139 138 144 153 155 154 151 150 152 153 146 129 103 73
215 215 225 182 211 212 237 207 133 104 277 231 196 175 149 139 144 237 185 179 151 141 142 151 147 141 146 147 145 144 146 144 156 161 158 146 149 146 142 146 150 134 120 89
194 206 223 207 214 274 255 226 113 144 234 197 179 164 157 178 186 168 134 123 122 130 139 136 146 153 151 148 147 149 152 166 157 146 144 144 136 134 136 130 137 140 128 92
186 193 211 182 209 259 203 103 156 202 237 191 177 171 184 123 123 117 126 136 147 142 142 148 140 141 145 151 150 150 166 151 146 143 144 142 139 138 131 122 117 117 108 98
214 192 175 230 218 258 220 181 171 169 197 224 178 151 146 131 160 164 171 166 161 157 152 150 145 140 150 158 159 157 158 149 149 149 149 145 139 130 135 129 126 120 120 114
264 165 181 273 271 245 238 297 190 193 200 181 163 150 156 179 175 174 158 163 159 164 165 157 146 154 158 162 163 157 152 152 153 155 150 148 137 132 135 133 131 131 127 120
213 152 218 249 271 291 272 229 219 216 206 186 146 174 188 161 178 167 171 173 176 172 167 165 168 168 167 163 162 151 156 154 156 153 151 153 147 142 136 130 144 141 139 139
204 208 167 233 248 207 278 317 209 185 188 192 146 160 200 194 187 170 182 175 171 173 165 167 172 167 164 165 161 159 160 160 158 156 155 155 148 150 145 135 115 139 144 140